GEESAT-6 04

Last updated on Mon Oct 20 2025 00:02:06 GMT+0000 (Coordinated Universal Time)

1 65716U 25214E 25292.24774835 .00005904 00000+0 68385-3 0 9999 2 65716 49.9871 345.9210 0011257 40.1385 320.0384 14.86573690 3727
UTC large
Height (km)
Speed (km/s)
/
Latitude / Longitude
Inclination (degrees)
Orbital Period (minutes)
Azimuth
Elevation
Range (km)
Doppler Factor

Next 0 passes for location: London (51.5072 / 0.1276)

Sorry there are no passes over London.